TimeCDT,TemperatureF,Dew PointF,Humidity,Sea Level PressureIn,VisibilityMPH,Wind Direction,Wind SpeedMPH,Gust SpeedMPH,PrecipitationIn,Events,Conditions,WindDirDegrees,DateUTC
12:53 AM,66.9,61.0,81,30.12,10.0,South,8.1,-,N/A,,Clear,190,2013-08-25 05:53:00
1:53 AM,71.1,62.1,73,30.10,10.0,South,15.0,-,N/A,,Clear,190,2013-08-25 06:53:00
2:53 AM,71.1,61.0,70,30.11,10.0,SSW,13.8,20.7,N/A,,Clear,200,2013-08-25 07:53:00
3:53 AM,70.0,60.1,71,30.12,10.0,SSW,10.4,-,N/A,,Clear,200,2013-08-25 08:53:00
4:53 AM,69.1,59.0,70,30.11,10.0,SSW,11.5,-,N/A,,Clear,200,2013-08-25 09:53:00
5:53 AM,70.0,60.1,71,30.12,10.0,SSW,11.5,-,N/A,,Clear,200,2013-08-25 10:53:00
6:53 AM,70.0,60.1,71,30.12,10.0,SSW,13.8,19.6,N/A,,Clear,200,2013-08-25 11:53:00
7:53 AM,72.0,63.0,73,30.13,10.0,SSW,12.7,19.6,N/A,,Clear,200,2013-08-25 12:53:00
8:53 AM,75.9,64.9,69,30.12,10.0,SW,9.2,20.7,N/A,,Clear,220,2013-08-25 13:53:00
9:53 AM,80.1,66.0,62,30.11,10.0,SW,11.5,21.9,N/A,,Clear,220,2013-08-25 14:53:00
10:53 AM,84.0,66.9,56,30.09,10.0,SSW,13.8,18.4,N/A,,Clear,210,2013-08-25 15:53:00
11:53 AM,87.1,66.9,51,30.07,10.0,SW,16.1,24.2,N/A,,Clear,220,2013-08-25 16:53:00
12:53 PM,88.0,68.0,51,30.06,10.0,SW,11.5,24.2,N/A,,Clear,230,2013-08-25 17:53:00
1:53 PM,90.0,68.0,48,30.04,10.0,SSW,13.8,25.3,N/A,,Clear,210,2013-08-25 18:53:00
2:53 PM,91.0,66.9,45,30.01,10.0,SSW,16.1,27.6,N/A,,Clear,210,2013-08-25 19:53:00
3:53 PM,90.0,69.1,50,30.01,10.0,SSW,15.0,21.9,N/A,,Clear,210,2013-08-25 20:53:00
4:53 PM,89.1,68.0,50,30.01,10.0,SW,13.8,24.2,N/A,,Clear,220,2013-08-25 21:53:00
5:53 PM,88.0,68.0,51,30.01,10.0,SSW,13.8,20.7,N/A,,Clear,210,2013-08-25 22:53:00
6:53 PM,86.0,69.1,57,30.01,10.0,SSW,16.1,21.9,N/A,,Clear,210,2013-08-25 23:53:00
7:53 PM,82.9,68.0,60,30.02,10.0,SW,10.4,-,N/A,,Clear,220,2013-08-26 00:53:00
8:53 PM,81.0,66.9,62,30.03,10.0,SSW,10.4,-,N/A,,Clear,210,2013-08-26 01:53:00
9:53 PM,79.0,66.0,64,30.03,10.0,SSW,10.4,-,N/A,,Clear,210,2013-08-26 02:53:00
10:53 PM,78.1,66.0,66,30.03,10.0,SSW,11.5,-,N/A,,Clear,210,2013-08-26 03:53:00
11:53 PM,77.0,64.9,66,30.01,10.0,SSW,12.7,-,N/A,,Clear,210,2013-08-26 04:53:00